GW7450 Weather Reports


time (UTC)temp
C
wind
direction
speed
KPH
gust
KPH
rain 1hr
cm
rain 24hr
cm
rain mn
cm
humidity
%
barometer
mb
20260906234322 16 18 0.0 1.6 0.00 0.00 0.15 75 1019.0
20260906233824 16 191 6.4 6.4 0.00 0.00 0.15 75 1019.0
20260906233322 16 36 0.0 1.6 0.00 0.00 0.15 77 1019.0
20260906232822 16 66 0.0 0.0 0.00 0.00 0.15 76 1019.0
20260906232322 16 49 1.6 6.4 0.00 0.00 0.15 77 1019.0
20260906231823 16 206 4.8 4.8 0.00 0.00 0.15 76 1019.0
20260906231322 16 15 1.6 4.8 0.00 0.00 0.15 76 1019.0
20260906230822 16 161 3.2 8.0 0.00 0.00 0.15 76 1019.0
20260906230323 16 21 0.0 0.0 0.00 0.00 0.15 79 1019.0
20260906225823 16 347 0.0 0.0 0.00 0.00 0.15 80 1019.0
20260906225322 16 25 0.0 0.0 0.00 0.00 0.15 81 1019.0
20260906224822 15 15 0.0 0.0 0.00 0.00 0.15 81 1019.0
20260906224322 15 147 3.2 3.2 0.00 0.00 0.15 82 1019.0
20260906223822 15 56 0.0 0.0 0.00 0.00 0.15 83 1019.0
20260906223322 15 52 0.0 0.0 0.00 0.00 0.15 83 1019.0
20260906222822 15 25 0.0 0.0 0.00 0.00 0.15 83 1019.0
20260906222322 15 46 1.6 3.2 0.00 0.00 0.15 81 1019.0
20260906221823 15 22 0.0 0.0 0.00 0.00 0.15 81 1019.0
20260906221322 15 26 0.0 0.0 0.00 0.00 0.15 81 1019.0
20260906220822 15 129 0.0 0.0 0.00 0.00 0.15 82 1019.0
20260906220322 15 26 0.0 0.0 0.00 0.00 0.15 81 1019.0
20260906215822 15 178 1.6 1.6 0.00 0.00 0.15 83 1019.0
20260906215322 15 223 4.8 4.8 0.00 0.00 0.15 82 1019.0
20260906214822 15 317 0.0 0.0 0.00 0.00 0.15 83 1019.0
20260906214322 15 355 1.6 1.6 0.00 0.00 0.15 84 1019.0
20260906213822 15 41 0.0 0.0 0.00 0.00 0.15 84 1019.0
20260906213322 15 31 0.0 0.0 0.00 0.00 0.15 84 1020.0
20260906212823 15 147 0.0 0.0 0.00 0.00 0.15 85 1020.0
20260906212323 14 170 3.2 3.2 0.00 0.00 0.15 86 1020.0
20260906211822 14 196 0.0 0.0 0.00 0.00 0.15 87 1019.0
20260906211322 14 330 0.0 0.0 0.00 0.00 0.15 87 1019.0
20260906210822 14 298 0.0 0.0 0.00 0.00 0.15 87 1020.0
20260906210322 13 11 0.0 0.0 0.00 0.00 0.15 87 1020.0
20260906205822 13 7 0.0 0.0 0.00 0.00 0.15 88 1020.0
20260906205322 13 303 1.6 1.6 0.00 0.00 0.15 88 1020.0
20260906204823 13 330 0.0 0.0 0.00 0.00 0.15 89 1020.0
20260906204322 13 323 0.0 0.0 0.00 0.00 0.15 89 1020.0
20260906203822 13 12 0.0 3.2 0.00 0.00 0.15 89 1020.0
20260906203322 13 317 3.2 3.2 0.00 0.00 0.15 89 1020.0
20260906202822 13 221 3.2 4.8 0.00 0.00 0.15 88 1020.0
20260906202322 13 301 0.0 0.0 0.00 0.00 0.15 89 1020.0
20260906201823 13 253 3.2 4.8 0.00 0.00 0.15 89 1020.0
20260906201323 13 356 0.0 0.0 0.00 0.00 0.15 90 1020.0
20260906200822 13 351 0.0 0.0 0.00 0.00 0.15 91 1020.0
20260906200322 13 51 0.0 0.0 0.00 0.00 0.15 91 1020.0
20260906195822 13 18 0.0 0.0 0.00 0.00 0.15 92 1020.0
20260906195322 13 258 1.6 1.6 0.00 0.00 0.15 92 1020.0
20260906194822 13 170 4.8 6.4 0.00 0.00 0.15 92 1020.0
20260906194322 13 258 4.8 4.8 0.00 0.00 0.15 93 1020.0
20260906193822 13 287 1.6 3.2 0.00 0.00 0.15 93 1020.0
20260906193322 12 70 1.6 3.2 0.00 0.00 0.15 94 1020.0
20260906192822 12 226 0.0 0.0 0.00 0.00 0.15 94 1020.0
20260906192325 12 130 3.2 3.2 0.00 0.00 0.15 94 1020.0
20260906191822 12 353 0.0 0.0 0.00 0.00 0.15 95 1020.0
20260906191322 12 17 0.0 0.0 0.00 0.00 0.15 95 1020.0
20260906190822 12 321 0.0 0.0 0.00 0.00 0.15 95 1020.0
20260906190322 12 30 0.0 0.0 0.00 0.00 0.15 95 1020.0
20260906185823 12 133 0.0 0.0 0.00 0.00 0.15 95 1020.0
20260906185322 12 27 0.0 0.0 0.00 0.00 0.15 95 1020.0
20260906184822 12 71 0.0 0.0 0.00 0.00 0.15 95 1020.0
20260906184322 12 5 0.0 0.0 0.03 0.00 0.15 95 1020.0
20260906183822 11 27 0.0 0.0 0.03 0.00 0.15 95 1021.0
20260906183322 11 45 0.0 1.6 0.03 0.00 0.15 95 1021.0
20260906182822 11 27 0.0 0.0 0.03 0.00 0.15 95 1021.0
20260906182323 11 26 0.0 0.0 0.03 0.00 0.15 95 1021.0
20260906181822 11 48 0.0 0.0 0.03 0.00 0.15 95 1021.0
20260906181323 11 148 0.0 0.0 0.03 0.00 0.15 95 1021.0
20260906180823 11 18 0.0 0.0 0.03 0.00 0.15 95 1021.0
20260906180323 11 29 0.0 1.6 0.03 0.00 0.15 95 1021.0
20260906175824 11 25 0.0 0.0 0.03 0.00 0.15 95 1021.0
20260906175322 11 30 0.0 0.0 0.03 0.00 0.15 95 1021.0
20260906174822 11 18 0.0 0.0 0.00 0.00 0.13 95 1021.0
20260906174322 11 13 0.0 0.0 0.00 0.00 0.13 95 1021.0
20260906173824 11 43 3.2 3.2 0.00 0.00 0.13 94 1021.0
20260906173322 11 358 0.0 0.0 0.00 0.00 0.13 95 1021.0
20260906172822 11 42 0.0 0.0 0.00 0.00 0.13 95 1021.0
20260906172323 11 33 0.0 0.0 0.00 0.00 0.13 95 1021.0
20260906171823 10 32 0.0 0.0 0.00 0.00 0.13 94 1021.0
20260906171322 11 28 0.0 0.0 0.00 0.00 0.13 95 1021.0
20260906170822 10 9 0.0 0.0 0.00 0.00 0.13 95 1021.0
20260906170322 10 23 0.0 0.0 0.00 0.00 0.13 95 1021.0
20260906165821 10 32 0.0 0.0 0.00 0.00 0.13 95 1021.0
20260906165322 10 14 0.0 0.0 0.00 0.00 0.13 95 1021.0
20260906164823 10 4 0.0 0.0 0.00 0.00 0.13 95 1021.0
20260906164322 10 16 0.0 0.0 0.00 0.00 0.13 95 1022.0
20260906163822 10 357 0.0 0.0 0.00 0.00 0.13 95 1022.0
20260906163322 10 351 0.0 0.0 0.03 0.00 0.13 95 1022.0
20260906162822 10 7 0.0 0.0 0.03 0.00 0.13 95 1022.0
20260906162322 10 12 0.0 0.0 0.03 0.00 0.13 95 1022.0
20260906161822 10 24 0.0 0.0 0.03 0.00 0.13 95 1022.0
20260906161322 10 29 0.0 0.0 0.03 0.00 0.13 95 1022.0
20260906160822 10 28 0.0 0.0 0.03 0.00 0.13 95 1022.0
20260906160322 10 28 0.0 0.0 0.03 0.00 0.13 95 1022.0
20260906155822 10 18 0.0 0.0 0.03 0.00 0.13 95 1022.0
20260906155322 10 22 0.0 0.0 0.03 0.00 0.13 95 1022.0
20260906154822 10 21 0.0 0.0 0.03 0.00 0.13 95 1022.0
20260906154322 10 19 0.0 0.0 0.03 0.00 0.13 95 1022.0
20260906153822 10 9 0.0 0.0 0.00 0.00 0.10 95 1022.0
20260906153322 10 26 0.0 0.0 0.00 0.00 0.10 95 1022.0
20260906152822 9 23 0.0 0.0 0.00 0.00 0.10 95 1022.0
20260906152322 9 20 0.0 0.0 0.00 0.00 0.10 95 1022.0
20260906151822 9 359 0.0 0.0 0.00 0.00 0.10 95 1022.0
20260906151322 9 358 0.0 0.0 0.00 0.00 0.10 95 1022.0
20260906150823 9 25 0.0 0.0 0.00 0.00 0.10 95 1022.0
20260906150322 9 347 0.0 0.0 0.00 0.00 0.10 95 1021.0
20260906145823 9 14 0.0 0.0 0.00 0.00 0.10 95 1021.0
20260906145322 9 8 0.0 0.0 0.00 0.00 0.10 95 1022.0
20260906144822 9 352 0.0 0.0 0.00 0.00 0.10 95 1022.0
20260906144322 9 9 0.0 0.0 0.00 0.00 0.10 95 1022.0
20260906143824 9 340 0.0 0.0 0.00 0.00 0.10 95 1022.0
20260906143322 9 9 0.0 0.0 0.00 0.00 0.10 95 1022.0
20260906142823 9 45 0.0 0.0 0.00 0.00 0.10 95 1022.0
20260906142322 9 12 0.0 0.0 0.00 0.00 0.10 95 1022.0
20260906141823 9 30 0.0 0.0 0.00 0.00 0.10 95 1022.0
20260906141322 8 26 0.0 0.0 0.00 0.00 0.10 95 1022.0
20260906140823 8 12 0.0 0.0 0.00 0.00 0.10 95 1022.0
20260906140322 8 355 0.0 0.0 0.00 0.00 0.10 95 1022.0
20260906135822 8 341 0.0 0.0 0.00 0.00 0.10 95 1022.0
20260906135322 8 333 0.0 0.0 0.00 0.00 0.10 95 1022.0
20260906134822 8 20 0.0 0.0 0.00 0.00 0.10 95 1022.0
20260906134323 8 356 0.0 0.0 0.00 0.00 0.10 95 1022.0
20260906133822 8 335 0.0 0.0 0.00 0.00 0.10 95 1022.0
20260906133324 8 309 0.0 4.8 0.00 0.00 0.10 95 1022.0
20260906132822 8 313 0.0 0.0 0.00 0.00 0.10 95 1022.0
20260906132323 8 321 0.0 1.6 0.00 0.00 0.10 95 1022.0
20260906131822 8 13 0.0 0.0 0.00 0.00 0.10 95 1022.0
20260906131322 8 17 0.0 0.0 0.03 0.00 0.10 95 1022.0
20260906130822 8 43 0.0 0.0 0.03 0.00 0.10 95 1022.0
20260906130322 8 27 0.0 0.0 0.05 0.00 0.10 95 1022.0
20260906125822 8 81 0.0 0.0 0.05 0.00 0.10 94 1022.0
20260906125322 8 357 0.0 0.0 0.05 0.00 0.10 94 1022.0
20260906124822 8 5 0.0 0.0 0.05 0.00 0.10 94 1022.0
20260906124322 8 19 0.0 0.0 0.05 0.00 0.10 95 1022.0
20260906123823 8 17 0.0 0.0 0.05 0.00 0.10 94 1022.0
20260906123322 8 16 0.0 0.0 0.08 0.00 0.10 94 1022.0
20260906122822 8 17 0.0 0.0 0.08 0.00 0.10 95 1022.0
20260906122322 8 27 0.0 0.0 0.05 0.00 0.08 94 1023.0
20260906121822 8 34 0.0 0.0 0.05 0.00 0.08 94 1022.0
20260906121323 8 14 0.0 0.0 0.05 0.00 0.08 94 1022.0
20260906120822 8 290 0.0 0.0 0.03 0.00 0.05 94 1023.0
20260906120323 8 293 4.8 4.8 0.03 0.00 0.05 94 1022.0
20260906115823 8 9 0.0 0.0 0.03 0.00 0.05 94 1023.0
20260906115322 8 359 0.0 0.0 0.03 0.00 0.05 94 1023.0
20260906114822 8 355 0.0 0.0 0.03 0.00 0.05 94 1023.0
20260906114322 8 28 0.0 0.0 0.05 0.00 0.05 94 1023.0
20260906113823 8 287 0.0 0.0 0.05 0.00 0.05 94 1023.0
20260906113322 8 15 0.0 0.0 0.03 0.00 0.03 94 1023.0
20260906112822 8 7 0.0 0.0 0.03 0.00 0.03 95 1023.0
20260906112322 8 13 0.0 0.0 0.03 0.00 0.03 95 1023.0
20260906111824 8 17 0.0 0.0 0.03 0.00 0.03 94 1023.0
20260906111323 8 23 0.0 0.0 0.03 0.00 0.03 94 1023.0
20260906110822 8 231 0.0 0.0 0.03 0.00 0.03 94 1024.0
20260906110322 8 10 0.0 0.0 0.03 0.00 0.03 95 1023.0
20260906105822 8 321 0.0 0.0 0.03 0.00 0.03 94 1024.0
20260906105322 8 292 0.0 3.2 0.03 0.00 0.03 94 1024.0
20260906104822 8 250 4.8 4.8 0.03 0.00 0.03 94 1024.0
20260906104322 8 304 3.2 4.8 0.00 0.00 0.00 95 1024.0
20260906103822 8 307 1.6 1.6 0.00 0.00 0.00 95 1024.0
20260906103322 8 346 3.2 3.2 0.00 0.00 0.00 95 1023.0
20260906102822 9 321 3.2 3.2 0.00 0.00 0.00 95 1024.0
20260906102323 8 24 0.0 0.0 0.00 0.00 0.00 95 1023.0
20260906101823 8 184 1.6 3.2 0.00 0.00 0.00 95 1023.0
20260906101322 8 1 0.0 0.0 0.00 0.00 0.00 95 1023.0
20260906100822 8 6 0.0 0.0 0.00 0.00 0.00 95 1023.0
20260906100322 8 326 0.0 0.0 0.00 0.00 0.00 95 1023.0
20260906095822 8 8 0.0 0.0 0.00 0.00 0.00 95 1023.0
20260906095321 8 4 0.0 0.0 0.00 0.00 0.00 95 1023.0
20260906094822 8 8 0.0 0.0 0.00 0.00 0.00 95 1023.0
20260906094323 9 31 0.0 0.0 0.00 0.00 0.00 95 1023.0
20260906093822 9 40 0.0 0.0 0.00 0.00 0.00 94 1023.0
20260906093322 9 295 0.0 0.0 0.00 0.00 0.00 95 1024.0
20260906092822 9 233 1.6 3.2 0.00 0.00 0.00 95 1024.0
20260906092322 9 323 0.0 3.2 0.00 0.00 0.00 95 1024.0
20260906091823 9 7 0.0 0.0 0.00 0.00 0.00 95 1024.0
20260906091322 9 7 0.0 0.0 0.00 0.00 0.00 95 1023.0
20260906090823 9 304 0.0 0.0 0.00 0.00 0.00 94 1023.0
20260906090326 9 351 0.0 0.0 0.00 0.00 0.00 94 1023.0
20260906085822 9 18 0.0 0.0 0.00 0.00 0.00 94 1024.0
20260906085322 9 18 0.0 0.0 0.00 0.00 0.00 94 1024.0
20260906084822 9 17 0.0 0.0 0.00 0.00 0.00 94 1024.0
20260906084322 9 18 0.0 0.0 0.00 0.00 0.00 94 1024.0
20260906083822 9 359 0.0 0.0 0.00 0.00 0.00 94 1024.0
20260906083322 9 8 0.0 0.0 0.00 0.00 0.00 94 1024.0
20260906082823 9 16 0.0 0.0 0.00 0.00 0.00 94 1024.0
20260906082322 9 12 0.0 0.0 0.00 0.00 0.00 94 1024.0
20260906081822 9 8 0.0 0.0 0.00 0.00 0.00 94 1024.0
20260906081329 9 5 0.0 0.0 0.00 0.00 0.00 94 1024.0
20260906080822 9 355 0.0 0.0 0.00 0.00 0.00 94 1024.0
20260906080322 9 22 0.0 0.0 0.00 0.00 0.00 94 1025.0
20260906075823 9 348 0.0 0.0 0.00 0.00 0.00 94 1025.0
20260906075322 9 23 0.0 0.0 0.00 0.00 0.00 94 1025.0
20260906074822 9 22 0.0 0.0 0.00 0.00 0.00 94 1024.0
20260906074322 9 29 0.0 0.0 0.00 0.00 0.00 94 1024.0
20260906073822 9 352 0.0 0.0 0.00 0.00 0.00 94 1024.0
20260906073322 10 7 0.0 0.0 0.00 0.00 0.00 94 1024.0
20260906072823 10 22 0.0 0.0 0.00 0.00 0.00 94 1024.0
20260906072322 10 17 0.0 0.0 0.00 0.00 0.00 94 1024.0
20260906071822 10 288 3.2 3.2 0.00 0.00 0.00 94 1024.0
20260906071322 10 358 0.0 0.0 0.00 0.00 0.00 94 1024.0
20260906070822 10 344 0.0 0.0 0.00 0.00 0.00 94 1025.0
20260906070322 10 18 0.0 0.0 0.00 0.00 0.00 94 1025.0
20260906065822 10 7 0.0 0.0 0.00 0.00 0.00 94 1025.0
20260906065322 10 26 0.0 0.0 0.00 0.00 0.00 94 1025.0
20260906064822 10 19 0.0 0.0 0.00 0.00 0.00 94 1025.0
20260906064322 10 19 0.0 0.0 0.00 0.00 0.00 94 1025.0
20260906063822 10 18 0.0 0.0 0.00 0.00 0.00 94 1025.0
20260906063322 10 22 0.0 0.0 0.00 0.00 0.00 94 1025.0
20260906062823 10 343 0.0 0.0 0.00 0.00 0.00 94 1025.0
20260906062323 10 9 0.0 0.0 0.00 0.00 0.00 94 1025.0
20260906061822 10 4 0.0 0.0 0.00 0.00 0.00 94 1025.0
20260906061322 10 341 0.0 0.0 0.00 0.00 0.00 94 1025.0
20260906060822 10 46 0.0 0.0 0.00 0.00 0.00 94 1025.0
20260906060322 10 295 0.0 0.0 0.00 0.00 0.00 94 1025.0
20260906055823 10 13 0.0 0.0 0.00 0.00 0.41 94 1025.0
20260906055322 10 9 0.0 0.0 0.00 0.00 0.41 94 1025.0
20260906054822 10 10 0.0 0.0 0.00 0.00 0.41 94 1025.0
20260906054322 10 5 0.0 0.0 0.00 0.00 0.41 94 1025.0
20260906053822 10 352 0.0 0.0 0.00 0.00 0.41 94 1025.0
20260906053322 10 359 0.0 1.6 0.00 0.00 0.41 94 1025.0
20260906052822 10 289 1.6 1.6 0.00 0.00 0.41 94 1025.0
20260906052322 10 340 1.6 3.2 0.00 0.00 0.41 94 1025.0
20260906051822 10 347 0.0 0.0 0.00 0.00 0.41 94 1025.0
20260906051323 10 13 0.0 0.0 0.00 0.00 0.41 94 1025.0
20260906050822 10 296 0.0 0.0 0.00 0.00 0.41 94 1025.0
20260906050323 10 307 4.8 4.8 0.00 0.00 0.41 94 1025.0
20260906045822 10 353 0.0 0.0 0.00 0.00 0.41 94 1025.0
20260906045322 10 355 0.0 0.0 0.00 0.00 0.41 94 1025.0
20260906044822 10 4 0.0 0.0 0.00 0.00 0.41 94 1025.0
20260906044322 10 12 0.0 0.0 0.00 0.00 0.41 94 1025.0
20260906043822 10 12 0.0 0.0 0.00 0.00 0.41 94 1025.0
20260906043323 10 357 0.0 0.0 0.00 0.00 0.41 94 1025.0
20260906042822 10 357 0.0 0.0 0.00 0.00 0.41 94 1025.0
20260906042322 10 335 0.0 0.0 0.00 0.00 0.41 94 1025.0
20260906041822 10 5 0.0 0.0 0.00 0.00 0.41 94 1025.0
20260906041323 10 9 0.0 0.0 0.00 0.00 0.41 94 1025.0
20260906040823 10 78 0.0 0.0 0.00 0.00 0.41 94 1025.0
20260906040322 10 348 0.0 0.0 0.00 0.00 0.41 94 1025.0
20260906035822 10 6 0.0 0.0 0.00 0.00 0.41 94 1025.0
20260906035322 10 13 0.0 0.0 0.00 0.00 0.41 94 1025.0
20260906034822 10 16 0.0 0.0 0.00 0.00 0.41 94 1025.0
20260906034322 10 15 0.0 0.0 0.00 0.00 0.41 94 1025.0
20260906033823 10 21 0.0 0.0 0.00 0.00 0.41 94 1024.0
20260906033322 10 13 0.0 0.0 0.00 0.00 0.41 94 1024.0
20260906032822 10 19 0.0 0.0 0.00 0.00 0.41 94 1024.0
20260906032322 10 18 0.0 0.0 0.00 0.00 0.41 94 1024.0
20260906031822 10 21 0.0 0.0 0.00 0.00 0.41 94 1024.0
20260906031322 10 36 0.0 0.0 0.00 0.00 0.41 94 1024.0
20260906030822 10 20 0.0 0.0 0.00 0.00 0.41 94 1024.0
20260906030325 10 31 0.0 0.0 0.00 0.00 0.41 94 1024.0
20260906025822 10 14 0.0 0.0 0.00 0.00 0.41 94 1024.0
20260906025323 10 32 0.0 0.0 0.00 0.00 0.41 94 1024.0
20260906024822 10 15 0.0 0.0 0.00 0.00 0.41 94 1024.0
20260906024322 10 12 0.0 0.0 0.00 0.00 0.41 94 1024.0
20260906023822 10 359 0.0 0.0 0.00 0.00 0.41 94 1024.0
20260906023322 10 16 0.0 0.0 0.00 0.00 0.41 93 1024.0
20260906022823 10 8 0.0 0.0 0.00 0.00 0.41 93 1024.0
20260906022322 10 1 0.0 0.0 0.00 0.00 0.41 93 1024.0
20260906021822 10 42 0.0 0.0 0.00 0.00 0.41 93 1024.0
20260906021323 10 56 0.0 0.0 0.00 0.00 0.41 93 1024.0
20260906020823 10 27 0.0 0.0 0.00 0.00 0.41 93 1024.0
20260906020322 10 67 0.0 0.0 0.00 0.00 0.41 93 1024.0
20260906015823 10 354 0.0 0.0 0.00 0.00 0.41 93 1024.0
20260906015322 10 21 0.0 1.6 0.00 0.00 0.41 93 1024.0
20260906014823 10 15 1.6 1.6 0.00 0.00 0.41 93 1024.0
20260906014322 10 49 0.0 0.0 0.00 0.00 0.41 93 1024.0
20260906013824 10 22 0.0 0.0 0.00 0.00 0.41 93 1024.0
20260906013323 10 8 0.0 0.0 0.00 0.00 0.41 93 1024.0
20260906012823 10 18 0.0 0.0 0.00 0.00 0.41 93 1024.0
20260906012322 10 5 0.0 0.0 0.00 0.00 0.41 93 1024.0
20260906011822 10 5 0.0 0.0 0.00 0.00 0.41 93 1024.0
20260906011322 10 32 0.0 0.0 0.00 0.00 0.41 93 1024.0
20260906010823 10 17 0.0 0.0 0.00 0.00 0.41 93 1024.0
20260906010322 10 10 0.0 0.0 0.00 0.00 0.41 93 1024.0
20260906005822 10 37 0.0 0.0 0.00 0.00 0.41 93 1024.0
20260906005322 10 19 0.0 0.0 0.00 0.00 0.41 93 1024.0
20260906004822 10 11 4.8 4.8 0.00 0.00 0.41 93 1024.0
20260906004322 10 45 6.4 6.4 0.05 0.00 0.41 93 1024.0
20260906003822 10 49 3.2 3.2 0.05 0.00 0.41 93 1024.0
20260906003323 10 20 0.0 0.0 0.05 0.00 0.41 93 1024.0
20260906002823 10 38 4.8 4.8 0.05 0.00 0.41 93 1024.0
20260906002322 10 36 3.2 3.2 0.05 0.00 0.41 93 1024.0
20260906001823 10 19 0.0 0.0 0.05 0.00 0.41 93 1024.0
20260906001322 10 26 0.0 3.2 0.05 0.00 0.41 93 1024.0
20260906000822 10 11 1.6 3.2 0.05 0.00 0.41 93 1024.0
20260906000322 10 16 4.8 4.8 0.05 0.00 0.41 93 1024.0
20260905235822 10 20 3.2 3.2 0.05 0.00 0.41 93 1024.0
20260905235322 10 16 4.8 6.4 0.08 0.00 0.41 93 1024.0
20260905234822 10 24 1.6 1.6 0.05 0.00 0.38 93 1024.0